Starlink 31357

operational
NORAD ID: 59502 Int'l Des: 2024-071 Owner: SPXS Country: US Constellation: starlink
LEOCIRCULAR

Starlink 31357について

説明を読み込み中...

リアルタイム位置

3D地球を読み込み中...

次回通過

高度履歴

Altitude vs Time

uPlot chart will show altitude changes over time

軌道要素

1 59502U 24071U 25259.25214956 .00001753 00000-0 73170-4 0 9990
2 59502 43.0000 245.2170 0000895 273.1028 86.9721 15.27589806 81526
Epoch: Sep 16, 2025 • Age: 9 hours

現在のステータス

高度 484.5 km
速度 7.62 km/s
衛星直下点 -9.80°S, 143.18°W
打ち上げ日 Apr 13, 2024
運用期間 1.4 years
タイプ internet

技術仕様

分類 Payload
質量 730.00 kg
乾燥質量 700.00 kg
総質量 730.00 kg
長さ 0.30 m
直径 4.10 m
スパン 29.00 m
形状 Box + pan
製造者 SPXS
バスタイプ Starlink V2M
フェーズステータス In Orbit
所有者/国 SPXS/US

大規模コンステレーション

Loading constellations...